Regional Weather Roundup
Issued by NWS Sterling, VA

Home | Current Version | Previous Version | Text Only | Print | Product List | Glossary Off
Versions: 1 2 3 4 5 6 7 8 9 10 11 12 13 14 15 16 17 18 19 20 21 22 23 24 25 26 27 28 29 30 31 32 33 34 35 36 37 38 39 40 41 42 43 44 45 46 47 48 49 50

000
ASUS41 KLWX 262310
RWRLWX

REGIONAL WEATHER ROUNDUP
NATIONAL WEATHER SERVICE BALTIMORE MD/WASHINGTON DC
700 PM EDT SUN APR 26 2015

Note: "FAIR" indicates few or no clouds below 12,000 feet
with no significant weather and/or obstructions to visibility.
 TC=TEMPERATURE CELSIUS

 * =Non NWS site. Station does not report precipitation (e.g. rain,
    snow, etc.), thunder, or fog.

DCZ001-MDZ009-015-VAZ040>042-051-053>054-270000-
WASHINGTON METRO

CITY           SKY/WX    TMP DP  RH WIND       PRES   REMARKS
WASHINGTON NAT PTCLDY    65  36  34 N6        29.69R
DULLES         PTCLDY    61  30  31 N8        29.69S
ANDREWS AFB    CLEAR     60  34  38 N6        29.68R
FT BELVOIR     CLEAR     63  29  27 NW7       29.68S
QUANTICO       PTCLDY    64  30  27 NW5       29.70R
COLLEGE PARK*  CLEAR     63  32  31 N7        29.68S
LEESBURG*      SUNNY     63  34  34 N8        29.70R
MANASSAS*      CLEAR     63  32  31 NW8       29.69S
GAITHERSBURG*  CLEAR     59  30  33 N3        29.73R

$$

MDZ006>007-011-014-270000-
BALTIMORE METRO

CITY           SKY/WX    TMP DP  RH WIND       PRES   REMARKS
BWI AIRPORT    PTCLDY    61  27  27 N8G22     29.68R
MD SCIENCE CTR   N/A     62  24  23 MISG      29.69S
ANNAPOLIS      CLEAR     58  37  45 S5        29.68S
FORT MEADE*    CLEAR     59  30  33 NW3       29.71R

$$

MDZ012-015-019>023-270000-
MARYLAND EASTERN SHORE

CITY           SKY/WX    TMP DP  RH WIND       PRES   REMARKS
OCEAN CITY     CLEAR     50  41  71 E7        29.70R
SALISBURY      MOCLDY    54  36  50 SE6       29.69R
BAY BRIDGE AP*   N/A    N/A N/A N/A CALM      29.68S
CAMBRIDGE*     CLEAR     61  30  31 NW6       29.67S
EASTON*        PTCLDY    63  34  34 N7        29.71S

$$

MDZ017>025-270000-
SOUTHERN MARYLAND

CITY           SKY/WX    TMP DP  RH WIND       PRES   REMARKS
PATUXENT RIVER CLEAR     58  33  39 NE6       29.69R
ST INIGOES     CLEAR     59  35  40 CALM      29.69R
LEONARDTOWN*   CLEAR     57  30  35 CALM      29.70S

$$

MDZ003>005-270000-
NORTH CENTRAL MARYLAND

CITY           SKY/WX    TMP DP  RH WIND       PRES   REMARKS
FREDERICK*     SUNNY     61  25  25 NE7       29.72R
HAGERSTOWN APT SUNNY     61  27  27 N7        29.69S
WESTMINSTER*   CLEAR     59  25  27 NE7       29.69S

$$

MDZ501>502-270000-
WESTERN MARYLAND

CITY           SKY/WX    TMP DP  RH WIND       PRES   REMARKS
OAKLAND*       SUNNY     50  27  40 NW9       29.73R
CUMBERLAND*    NOT AVBL

$$

VAZ025>031-270000-
SHENANDOAH VALLEY

CITY           SKY/WX    TMP DP  RH WIND       PRES   REMARKS
WINCHESTER*    CLOUDY    63  19  19 NE6       29.68S
FRONT ROYAL*   FAIR      61  32  33 CALM      29.67S
LURAY*         FAIR      59  37  44 CALM      29.69S
NEW MARKET*    MOCLDY    58  36  42 CALM      29.68S
STAUNTON*      SUNNY     58  33  39 W3        29.71S
WAYNESBORO*    FAIR      56  35  45 NW5       29.71S

$$

WVZ021-048>050-054>055-270000-
EASTERN WEST VIRGINIA PANHANDLE

CITY           SKY/WX    TMP DP  RH WIND       PRES   REMARKS
MARTINSBURG    SUNNY     61  28  28 NE7       29.69R
PETERSBURG*    SUNNY     61  31  32 CALM      29.70S

$$

VAZ036>039-050-270000-
CENTRAL FOOTHILLS

CITY           SKY/WX    TMP DP  RH WIND       PRES   REMARKS
CHARLOTTESVILL SUNNY     60  36  40 SW5       29.69S
CULPEPER*      SUNNY     63  30  29 N3        29.70S
ORANGE*        SUNNY     61  36  39 CALM      29.71S
GORDONSVILLE*  FAIR      60  35  39 NE3       29.69S
WARRENTON*     FAIR      62  35  36 N3        29.69S

$$

VAZ055>057-270000-
NORTH AND CENTRAL PIEDMONT

CITY           SKY/WX    TMP DP  RH WIND       PRES   REMARKS
FREDERICKSBRG* CLEAR     63  34  34 NW8       29.69S
STAFFORD*      CLEAR     60  32  34 NW8       29.74R

$$

NCZ024-NYZ072-PAZ021-071-VAZ022-071-270000-
OTHER REGIONAL OBSERVATIONS

CITY           SKY/WX    TMP DP  RH WIND       PRES   REMARKS
NEW YORK CITY  CLOUDY    60  25  26 VRB5      29.68R
PHILADELPHIA   MOCLDY    61  26  26 N9        29.67S
PITTSBURGH     MOSUNNY   56  28  34 NW17G23   29.78R
ROANOKE        PTSUNNY   53  44  71 VRB3      29.75F
RICHMOND       MOCLDY    60  37  42 NE5       29.70S
RALEIGH        CLOUDY    53  45  74 N5        29.73F

$$

ANZ530>537-270000-
MARINE OBSERVATIONS

STATION/POSITION TIME  TEMP    WIND        PRES
                       AIR SEA DIR/SP/G
                 (UTC) (F)     (DEG/KT/KT) (MB)
THOMAS PT LIGHT  2300   58 54  210/  4/  4 1006.0R
BALT KEY BRIDGE  2200   62     250/  1/  2 1004.8R
COVE POINT       2200   57      20/  2/  4 1005.8S
LEWISETTA        2200   60 57              1005.1R
SOLOMONS ISLAND  2200      57                N/A
PINEY POINT      2200          220/  4/  5   N/A

$$



USA.gov is the U.S. government's official web portal to all federal, state and local government web resources and services.